#timestamp,LO_Frequency,Hit 
1501844415.6,286046650.6,N
1501844435.5,286046658.7,N
1501844455.3,286046661.9,N
1501844475.1,286046658.2,N
1501844495.9,286046661.2,N
1501844515.7,286046668.7,N
1501844535.5,286046671.6,N
1501844555.3,286046677.7,N
1501844575.2,286046675.4,N
1501844595.0,286046670.7,N
1501844595.9,286046670.7,N
1501844615.7,286046667.3,N
1501844635.6,286046663.9,N
1501844655.4,286046660.7,N
1501844675.2,286046654.8,N
1501844695.1,286046654.1,N
1501844696.0,286046654.1,N
1501844715.8,286046659.7,N
1501844735.6,286046656.2,N
1501844755.5,286046652.6,N
1501844775.3,286046658.6,N
1501844795.1,286046659.3,N
1501844815.9,286046656.2,N
1501844835.7,286046653.1,N
1501844855.5,286046648.4,N
1501844875.3,286046643.4,N
1501844895.2,286046645.6,N
1501844915.0,286046644.4,N
1501844915.9,286046644.4,N
1501844935.7,286046635.8,N
1501844955.6,286046634.6,N
1501844975.4,286046630.2,N
1501844995.2,286046632.7,N
1501845015.1,286046631.7,N
1501845016.0,286046631.7,N
1501845035.8,286046631.8,N
1501845055.6,286046634.2,N
1501845075.5,286046634.2,N
1501845095.3,286046629.0,N
1501845115.1,286046624.2,N
1501845135.8,286046620.5,N
1501845155.7,286046620.3,N
1501845175.5,286046618.4,N
1501845195.3,286046620.4,N
1501845215.2,286046621.2,N
1501845235.9,286046622.9,N
1501845255.7,286046624.7,N
1501845275.6,286046624.5,N
1501845295.4,286046624.8,N
1501845315.2,286046621.4,N
1501845335.1,286046616.1,N
1501845336.0,286046616.1,N
1501845355.8,286046612.8,N
1501845375.6,286046613.9,N
1501845395.5,286046615.4,N
1501845415.3,286046615.8,N
1501845435.1,286046617.0,N
1501845455.8,286046615.9,N
1501845475.7,286046616.2,N
1501845495.5,286046616.8,N
1501845515.3,286046612.9,N
1501845535.2,286046611.1,N
1501845555.9,286046608.0,N
1501845575.7,286046604.5,N
1501845595.6,286046603.0,N
1501845615.4,286046601.2,N
1501845635.2,286046602.2,N
1501845655.1,286046604.9,N
1501845656.0,286046604.9,N
1501845675.8,286046606.2,N
1501845695.6,286046608.8,N
1501845715.4,286046606.1,N
1501845735.3,286046608.0,N
1501845755.1,286046611.8,N
1501845775.8,286046609.9,N
1501845795.7,286046607.0,N
1501845815.5,286046602.1,N
1501845835.3,286046599.0,N
1501845855.2,286046595.3,N
1501845875.9,286046592.1,N
1501845895.7,286046592.3,N
1501845915.6,286046592.6,N
1501845935.4,286046592.9,N
1501845955.2,286046592.8,N
1501845975.0,286046590.6,N
1501845975.9,286046590.6,N
1501845995.8,286046599.2,N
1501846015.6,286046602.1,N
1501846035.4,286046606.5,N
1501846055.3,286046608.4,N
1501846075.1,286046609.2,N
1501846095.8,286046607.5,N
1501846115.7,286046606.9,N
1501846135.5,286046602.9,N
1501846155.3,286046601.4,N
1501846175.2,286046598.5,N
1501846195.9,286046607.8,N
1501846215.7,286046619.8,N
1501846235.5,286046624.9,N
1501846255.4,286046616.0,N
1501846275.2,286046612.6,N
1501846295.0,286046612.9,N
1501846295.9,286046612.9,N
1501846315.8,286046614.9,N
1501846335.6,286046618.8,N
1501846355.4,286046614.9,N
1501846375.3,286046609.3,N
1501846395.1,286046607.7,N
1501846396.0,286046607.7,N
1501846415.8,286046603.4,N
1501846435.7,286046601.4,N
1501846455.5,286046599.7,N
1501846475.3,286046599.5,N
1501846495.2,286046596.3,N
1501846515.9,286046592.1,N
1501846535.7,286046590.1,N
1501846555.5,286046587.7,N
1501846575.4,286046586.2,N
1501846595.2,286046583.0,N
1501846615.0,286046581.2,N
1501846615.9,286046581.2,N
1501846635.8,286046580.2,N
1501846655.6,286046577.1,N
1501846675.4,286046574.2,N
1501846695.3,286046577.1,N
1501846715.1,286046575.0,N
1501846716.0,286046575.0,N
1501846735.8,286046572.9,N
1501846755.7,286046572.3,N
1501846775.5,286046569.8,N
1501846795.3,286046568.4,N
1501846815.1,286046566.2,N
1501846835.9,286046566.4,N
1501846855.7,286046568.9,N
1501846875.5,286046564.8,N
1501846895.4,286046565.2,N
1501846915.2,286046564.8,N
1501846935.0,286046563.3,N
1501846935.9,286046563.3,N
1501846955.8,286046561.8,N
1501846975.6,286046561.5,N
1501846995.4,286046561.4,N
1501847015.3,286046560.7,N
1501847035.1,286046564.3,N
1501847036.0,286046564.3,N
1501847055.8,286046567.1,N
1501847075.7,286046565.4,N
1501847095.5,286046566.6,N
1501847115.3,286046570.8,N
1501847135.1,286046570.1,N
1501847155.9,286046566.9,N
1501847175.7,286046565.3,N
1501847195.5,286046561.3,N
1501847215.4,286046561.1,N
1501847235.2,286046560.8,N
1501847255.0,286046556.7,N
1501847255.9,286046556.7,N
1501847275.8,286046557.4,N
1501847295.6,286046555.6,N
1501847315.4,286046556.2,N
1501847335.3,286046551.9,N
1501847355.1,286046550.6,N
1501847356.0,286046550.6,N
1501847375.8,286046550.7,N
1501847395.6,286046550.7,N
1501847415.5,286046551.6,N
1501847435.3,286046549.6,N
1501847455.1,286046549.5,N
1501847475.9,286046547.6,N
1501847495.7,286046547.8,N
1501847515.5,286046546.7,N
1501847535.4,286046546.1,N
1501847555.2,286046544.8,N
1501847575.0,286046542.2,N
1501847575.9,286046542.2,N
1501847595.8,286046544.7,N
1501847615.6,286046542.4,N
1501847635.4,286046543.1,N
1501847655.3,286046543.1,N
1501847675.1,286046545.6,N
1501847676.0,286046545.6,N
1501847695.8,286046550.2,N
1501847715.6,286046551.5,N
1501847735.5,286046547.2,N
1501847755.3,286046545.6,N
1501847775.1,286046545.2,N
1501847795.9,286046542.4,N
1501847815.7,286046546.1,N
1501847835.5,286046549.0,N
1501847855.4,286046550.7,N
1501847875.2,286046549.9,N
1501847895.0,286046545.7,N
1501847895.9,286046545.7,N
1501847915.8,286046545.6,N
1501847935.6,286046544.1,N
1501847955.4,286046549.6,N
1501847975.2,286046549.1,N
1501847995.1,286046550.7,N
1501847996.0,286046550.7,N
